{"data":{"norad_id":62234,"epoch":"2026-05-25T04:58:44.378112Z","epoch_age_seconds":57289,"freshness":"FRESH","line1":"1 62234U 24231S   26145.20745808  .00013400  00000+0  46363-3 0  9993","line2":"2 62234  53.1586 224.2039 0001121 100.3332 259.7795 15.30207012 83473","mean_motion":15.30207012,"eccentricity":0.0001121,"inclination_deg":53.1586,"raan_deg":224.2039,"arg_perigee_deg":100.3332,"mean_anomaly_deg":259.7795,"bstar":0.00046363,"rev_number":8347,"period_min":94.104914479375,"perigee_km":474.42587451119,"apogee_km":475.9623913512,"semimajor_km":6853.3311329312,"source":"CELESTRAK","updated_at":"2026-05-25T13:38:19.639169Z"}}